JP7FSO Weather Reports


Display with metric or nautical units.
time (UTC)temp
F
wind
direction
speed
MPH
gust
MPH
rain 1hr
in
rain 24hr
in
rain mn
in
humidity
%
barometer
mb
20260509223029 57 286 0.0 0.0 0.00 0.00 0.00 56 1013.0
20260509221515 55 191 0.0 0.0 0.00 0.00 0.00 62 1013.0
20260509220100 54 134 0.0 0.0 0.00 0.00 0.00 64 1013.0
20260509214508 52 110 0.0 0.0 0.00 0.00 0.00 68 1012.9
20260509213104 50 260 0.0 0.0 0.00 0.00 0.00 68 1012.8
20260509211507 49 279 0.0 0.0 0.00 0.00 0.00 69 1012.6
20260509210007 48 99 0.0 0.0 0.00 0.00 0.00 70 1012.4
20260509204504 48 282 1.0 0.0 0.00 0.00 0.00 70 1012.2
20260509203012 47 320 0.0 0.0 0.00 0.00 0.00 69 1011.9
20260509201508 47 300 0.0 0.0 0.00 0.00 0.00 68 1011.7
20260509200008 48 305 0.0 0.0 0.00 0.00 0.00 67 1011.3
20260509193109 48 315 0.0 0.0 0.00 0.00 0.00 66 1010.7
20260509191504 49 293 0.0 0.0 0.00 0.00 0.00 66 1010.6
20260509190023 49 288 0.0 0.0 0.00 0.00 0.00 65 1010.6
20260509184509 49 291 0.0 0.0 0.00 0.00 0.00 64 1010.4
20260509183028 50 297 0.0 0.0 0.00 0.00 0.00 63 1010.2
20260509181512 50 298 0.0 0.0 0.00 0.00 0.00 62 1010.1
20260509180019 51 281 0.0 0.0 0.00 0.00 0.00 61 1010.0
20260509174508 51 278 0.0 0.0 0.00 0.00 0.00 60 1009.8
20260509173015 51 296 0.0 0.0 0.00 0.00 0.00 59 1009.6
20260509171511 52 320 0.0 0.0 0.00 0.00 0.00 59 1009.6
20260509170027 53 85 0.0 0.0 0.00 0.00 0.00 57 1009.5
20260509164514 54 119 0.0 0.0 0.00 0.00 0.00 55 1009.3
20260509163018 55 243 0.0 0.0 0.00 0.00 0.00 52 1009.0
20260509161512 56 297 2.0 0.0 0.00 0.00 0.00 49 1009.0
20260509160059 56 298 1.0 0.0 0.00 0.00 0.00 47 1008.9
20260509154520 56 276 1.0 0.0 0.00 0.00 0.00 46 1008.7
20260509153010 56 270 1.0 0.0 0.00 0.00 0.00 47 1008.6
20260509151511 56 251 0.0 0.0 0.00 0.00 0.00 47 1008.5
20260509150009 56 269 0.0 0.0 0.00 0.00 0.00 49 1008.5
20260509140008 57 251 0.0 0.0 0.00 0.00 0.00 46 1008.0
20260509134507 57 347 0.0 0.0 0.00 0.00 0.00 47 1008.0
20260509133012 57 266 0.0 0.0 0.00 0.00 0.00 46 1007.9
20260509131509 57 292 0.0 0.0 0.00 0.00 0.00 47 1007.7
20260509130011 58 262 0.0 0.0 0.00 0.00 0.00 47 1007.5
20260509124518 58 285 0.0 0.0 0.00 0.00 0.00 46 1007.4
20260509123106 58 283 0.0 0.0 0.00 0.00 0.00 45 1007.1
20260509121523 58 296 1.0 0.0 0.00 0.00 0.00 45 1007.0
20260509120023 58 277 1.0 0.0 0.00 0.00 0.00 45 1006.9
20260509113008 59 305 2.0 0.0 0.00 0.00 0.00 44 1006.4
20260509111601 59 290 2.0 0.0 0.00 0.00 0.00 44 1006.3
20260509110105 59 352 2.0 0.0 0.00 0.00 0.00 42 1006.3
20260509104557 59 273 3.0 0.0 0.00 0.00 0.00 40 1006.5
20260509103005 60 262 1.0 0.0 0.00 0.00 0.00 40 1006.1
20260509101515 60 285 0.0 0.0 0.00 0.00 0.00 38 1005.9
20260509100005 61 261 1.0 0.0 0.00 0.00 0.00 36 1005.4
20260509094505 61 262 1.0 0.0 0.00 0.00 0.00 34 1005.4
20260509093033 62 282 2.0 0.0 0.00 0.00 0.00 35 1005.2
20260509091526 62 114 2.0 0.0 0.00 0.00 0.00 34 1005.2
20260509090032 63 295 2.0 0.0 0.00 0.00 0.00 30 1004.8
20260509084522 63 301 4.0 0.0 0.00 0.00 0.00 29 1004.8
20260509083115 64 297 4.0 0.0 0.00 0.00 0.00 28 1003.9
20260509081537 65 340 2.0 0.0 0.00 0.00 0.00 27 1003.8
20260509074536 67 268 3.0 0.0 0.00 0.00 0.00 26 1003.4
20260509073101 67 262 3.0 0.0 0.00 0.00 0.00 26 1003.3
20260509071516 68 253 4.0 0.0 0.00 0.00 0.00 25 1003.2
20260509070024 69 301 3.0 0.0 0.00 0.00 0.00 25 1003.2
20260509064614 69 197 2.0 0.0 0.00 0.00 0.00 24 1002.8
20260509063026 69 269 5.0 0.0 0.00 0.00 0.00 24 1002.3
20260509061616 68 300 5.0 0.0 0.00 0.00 0.00 24 1002.5
20260509054525 69 161 5.0 0.0 0.00 0.00 0.00 25 1002.3
20260509053005 69 277 5.0 0.0 0.00 0.00 0.00 27 1002.6
20260509051533 68 259 6.0 0.0 0.00 0.00 0.00 27 1002.6
20260509050018 69 277 5.0 0.0 0.00 0.00 0.00 28 1002.4
20260509041526 67 262 2.0 0.0 0.00 0.00 0.00 35 1002.7
20260509034514 69 340 4.0 0.0 0.00 0.00 0.00 31 1002.5
20260509033116 69 245 3.0 0.0 0.00 0.00 0.00 29 1002.5
20260509031518 69 305 2.0 0.0 0.00 0.00 0.00 33 1002.6
20260509030007 68 297 2.0 0.0 0.00 0.00 0.00 31 1002.4
20260509024509 66 269 3.0 0.0 0.00 0.00 0.00 34 1002.6
20260509023017 66 221 4.0 0.0 0.00 0.00 0.00 35 1002.7
20260509021504 65 306 3.0 0.0 0.00 0.00 0.00 40 1002.7
20260509020027 64 200 1.0 0.0 0.00 0.00 0.00 43 1002.8
20260509014529 62 271 5.0 0.0 0.00 0.00 0.00 44 1003.2
20260509013023 62 244 4.0 0.0 0.00 0.00 0.00 45 1002.8
20260509011513 61 327 4.0 0.0 0.00 0.00 0.00 50 1002.7
20260509004523 60 270 4.0 0.0 0.00 0.00 0.00 49 1002.3
20260509003059 60 295 4.0 0.0 0.00 0.00 0.00 49 1002.0
20260509001510 58 256 5.0 0.0 0.00 0.00 0.00 53 1001.8
20260509000010 59 318 5.0 0.0 0.00 0.00 0.00 50 1001.2
20260508234501 59 193 6.0 0.0 0.00 0.00 0.00 50 1000.1
20260508233017 59 188 7.0 0.0 0.00 0.00 0.00 52 999.7
20260508231556 60 322 5.0 0.0 0.00 0.00 0.00 60 999.7
20260508230027 61 180 4.0 0.0 0.00 0.00 0.00 51 999.1
20260508224514 62 0 4.0 0.0 0.00 0.00 0.00 44 998.1